TimeEST,TemperatureF,Dew PointF,Humidity,Sea Level PressureIn,VisibilityMPH,Wind Direction,Wind SpeedMPH,Gust SpeedMPH,PrecipitationIn,Events,Conditions,WindDirDegrees,DateUTC
12:51 AM,19.9,-2.0,38,30.28,10.0,SW,3.5,-,N/A,,Clear,230,2014-01-25 05:51:00
1:51 AM,19.9,-2.0,38,30.24,9.0,SW,3.5,-,N/A,,Clear,230,2014-01-25 06:51:00
2:51 AM,19.9,-2.0,38,30.21,8.0,SW,3.5,-,N/A,,Clear,230,2014-01-25 07:51:00
3:51 AM,18.0,-0.9,44,30.18,8.0,Calm,Calm,-,N/A,,Clear,0,2014-01-25 08:51:00
4:51 AM,17.1,1.0,50,30.15,9.0,SW,4.6,-,N/A,,Clear,230,2014-01-25 09:51:00
5:51 AM,18.0,-0.0,45,30.13,9.0,SW,3.5,-,N/A,,Clear,220,2014-01-25 10:51:00
6:51 AM,19.0,1.0,46,30.11,10.0,SW,4.6,-,N/A,,Clear,230,2014-01-25 11:51:00
7:51 AM,19.0,3.0,50,30.09,9.0,WSW,3.5,-,N/A,,Clear,240,2014-01-25 12:51:00
8:51 AM,23.0,3.9,44,30.06,9.0,SW,8.1,-,N/A,,Mostly Cloudy,230,2014-01-25 13:51:00
9:51 AM,28.0,10.0,47,30.04,10.0,WSW,11.5,19.6,N/A,,Overcast,250,2014-01-25 14:51:00
10:51 AM,34.0,12.9,42,29.99,10.0,West,10.4,18.4,N/A,,Clear,260,2014-01-25 15:51:00
11:51 AM,39.9,10.0,29,29.94,10.0,WSW,15.0,21.9,N/A,,Scattered Clouds,240,2014-01-25 16:51:00
12:51 PM,41.0,9.0,27,29.88,10.0,WSW,11.5,20.7,N/A,,Overcast,240,2014-01-25 17:51:00
1:51 PM,46.0,10.0,23,29.85,10.0,WSW,11.5,21.9,N/A,,Overcast,240,2014-01-25 18:51:00
2:51 PM,46.0,10.0,23,29.84,10.0,WSW,10.4,21.9,N/A,,Overcast,250,2014-01-25 19:51:00
3:51 PM,48.0,10.9,22,29.84,10.0,Variable,4.6,19.6,N/A,,Clear,0,2014-01-25 20:51:00
4:51 PM,46.0,10.9,24,29.87,10.0,West,12.7,20.7,N/A,,Overcast,280,2014-01-25 21:51:00
5:51 PM,42.1,12.0,29,29.91,10.0,WNW,10.4,18.4,N/A,,Overcast,290,2014-01-25 22:51:00
6:51 PM,39.0,12.0,33,29.94,10.0,WNW,6.9,-,N/A,,Partly Cloudy,290,2014-01-25 23:51:00
7:51 PM,37.9,12.9,36,29.96,10.0,West,6.9,-,N/A,,Clear,270,2014-01-26 00:51:00
8:51 PM,37.0,12.9,37,29.96,10.0,West,6.9,-,N/A,,Clear,260,2014-01-26 01:51:00
9:51 PM,36.0,14.0,41,29.97,10.0,WSW,6.9,-,N/A,,Clear,240,2014-01-26 02:51:00
10:51 PM,35.1,14.0,42,29.97,7.0,WSW,4.6,-,N/A,,Clear,240,2014-01-26 03:51:00
11:51 PM,34.0,14.0,44,29.97,7.0,WSW,3.5,-,N/A,,Clear,250,2014-01-26 04:51:00